Vorticity
nan nan nan nan nan nan nan nan nan nan nan nan nan nan nan nan nan nan nan nan nan nan nan nan nan nan nan nan nan nan nan nan nan nan nan nan nan nan nan nan nan nan nan
nan 6 3 6 6 6 7 9 7 6 7 6 6 6 6 5 4 6 7 6 5 5 6 7 8 8 7 5 6 5 4 5 5 4 2 3 4 3 4 8 16 7 nan
nan 6 5 3 6 5 5 6 7 7 7 6 6 5 5 5 5 5 5 5 5 5 6 7 8 10 7 7 7 5 5 4 4 5 -1 0 5 5 6 11 8 6 nan
nan 4 5 3 6 5 5 5 7 7 6 6 6 6 5 5 5 5 4 4 5 5 6 6 7 8 8 8 8 5 6 5 3 1 1 3 4 5 5 6 3 5 nan
nan 8 5 6 6 5 5 5 5 6 6 6 6 5 5 5 5 4 4 3 4 4 7 7 7 7 7 8 7 6 4 4 4 3 4 7 7 8 5 3 6 7 nan
nan 10 5 5 5 5 5 6 5 6 6 5 5 5 5 5 6 5 5 5 6 5 5 7 8 7 7 7 6 6 4 3 4 3 6 7 12 14 4 4 4 6 nan
nan 7 7 5 6 6 5 5 5 5 5 5 5 5 6 5 5 6 6 7 6 6 6 7 6 7 8 7 5 6 6 2 4 8 7 10 13 7 4 6 5 4 nan
nan 6 4 3 5 6 5 5 5 5 5 5 5 5 5 6 6 6 5 6 7 7 4 6 6 7 8 6 6 6 4 5 3 6 7 9 10 6 5 5 5 4 nan
nan 5 7 5 4 4 6 5 5 5 5 5 5 4 3 6 6 5 5 6 7 8 6 6 6 7 7 7 7 4 4 2 3 8 7 12 9 5 5 5 4 5 nan
nan 6 9 7 5 5 6 6 5 5 5 5 5 5 4 3 5 7 10 8 5 7 8 7 5 6 8 8 5 5 3 6 7 5 12 15 12 6 5 5 5 5 nan
nan 3 7 7 7 6 6 8 5 6 5 5 5 5 4 7 11 8 6 7 6 6 7 8 8 6 6 9 7 6 4 6 10 1 18 14 5 5 6 5 6 6 nan
nan 9 3 5 5 4 6 9 8 7 6 6 5 5 -0 6 11 7 11 4 3 5 7 9 9 6 5 5 9 6 5 6 7 9 12 10 8 6 5 5 6 6 nan
nan 5 7 7 8 5 7 2 8 7 7 11 10 7 6 5 5 3 7 7 9 9 5 9 7 8 9 5 5 9 6 5 5 10 14 11 5 5 5 6 5 7 nan
nan 6 9 9 9 4 6 7 5 6 6 8 8 6 6 7 5 6 4 5 8 7 14 5 6 10 8 6 7 6 2 9 6 8 11 10 6 5 6 7 5 5 nan
nan 8 8 7 5 7 4 6 9 5 7 11 7 6 4 6 5 4 5 8 6 6 8 6 14 11 6 8 8 5 7 5 3 6 11 11 5 5 7 7 8 5 nan
nan 9 6 6 7 8 7 6 6 7 7 8 10 13 7 6 6 3 3 8 8 4 3 21 10 8 10 8 6 8 7 9 12 4 6 8 11 6 6 7 8 6 nan
nan 7 6 8 8 8 7 7 7 9 6 5 13 13 8 7 4 6 6 6 8 6 5 11 8 9 5 7 12 10 8 7 7 7 6 9 13 13 9 7 7 8 nan
nan 7 5 8 9 8 7 7 5 9 9 4 7 7 11 6 4 6 6 8 6 5 7 4 10 9 4 7 10 9 10 9 8 9 5 8 7 11 16 11 7 6 nan
nan 7 5 6 7 7 7 8 7 6 6 8 10 8 10 7 8 5 7 9 7 7 4 7 11 7 7 4 7 9 8 9 8 9 8 7 5 8 15 15 11 9 nan
nan 6 5 6 6 7 10 7 6 5 8 9 6 12 12 10 5 7 9 9 9 7 8 10 8 6 5 7 9 5 6 8 8 8 9 8 10 7 7 12 13 13 nan
nan 9 9 7 6 10 7 7 8 10 9 7 9 8 4 6 10 10 8 9 5 6 8 8 10 9 6 8 9 9 9 9 8 9 9 10 9 9 8 8 8 8 nan
nan 8 7 6 6 8 8 7 10 8 7 7 9 8 12 10 11 10 7 8 9 9 9 6 8 9 10 10 6 8 11 12 11 11 7 9 8 10 11 10 7 7 nan
nan 7 7 7 4 1 8 10 7 7 8 14 8 7 7 9 12 9 11 11 10 10 11 10 9 7 7 10 10 6 8 9 9 13 12 7 10 9 9 11 11 9 nan
nan 8 11 10 6 8 5 3 10 7 8 10 10 8 7 10 10 9 12 9 10 11 10 10 10 9 8 6 9 8 3 7 12 4 10 14 10 8 8 7 8 12 nan
nan 12 12 10 6 6 4 7 11 10 10 5 9 8 15 11 10 8 10 13 12 10 11 10 9 9 6 7 8 9 13 11 5 4 8 10 11 11 12 12 11 9 nan
nan nan nan nan nan nan nan nan nan nan nan nan nan nan nan nan nan nan nan nan nan nan nan nan nan nan nan nan nan nan nan nan nan nan nan nan nan nan nan nan nan nan nan
CAPE
1248 1303 3124 3009 3070 3326 3461 3525 3498 3387 2769 2647 2424 2352 2365 2152 2208 2128 2059 2141 1941 1744 1499 1334 1219 1125 1310 1320 1308 1503 867 1383 1411 1346 1265 1192 1054 944 637 875 1089 547 686
1567 1637 2876 3164 2966 3166 3381 3433 3602 3501 3132 2855 2748 2516 2475 2411 2387 2227 2195 2202 2096 1962 1625 1456 1423 1508 1633 1302 1499 1684 1286 1601 1433 1466 1333 1199 1049 640 275 341 1061 791 366
1330 1517 1643 3187 3274 2894 3136 3574 3824 3750 3286 3031 3007 2634 2603 2499 2489 1952 1936 2112 2176 2040 1829 1811 1533 1609 1627 1552 1517 1389 1392 1542 1499 1275 1437 657 564 238 819 1016 769 844 424
1287 1221 1595 3046 3302 2965 3075 3438 3522 3573 3105 3223 2985 2791 2739 2668 2495 2275 2249 2121 2000 2004 1872 1811 1703 1661 1622 1467 1745 1495 1654 1303 1191 1425 1210 615 115 345 946 200 488 589 728
1347 1410 2079 3197 3148 2868 3039 3403 3517 3477 3165 3088 3003 2848 2682 2566 2413 2357 2273 2040 2082 2061 1890 1990 1772 1646 1360 1657 1754 1678 1308 1056 1112 1323 1233 949 431 473 932 298 697 402 583
1261 1801 2527 3123 2669 2526 2746 2978 3077 3026 3031 2951 2826 2561 2408 2425 2362 2314 2266 2093 1988 2083 1903 1869 2000 1833 1621 1736 1718 1560 1432 1441 1424 1352 945 817 1213 1234 1004 809 285 900 711
1186 2464 1964 3284 3152 2953 2840 2865 2788 2794 2760 2686 2569 2569 2806 2871 2632 2366 2080 2086 2006 1729 1674 1680 1857 1765 1723 1871 1813 1713 1756 1725 1260 1148 1042 845 1165 1563 914 457 568 810 704
1255 2043 1776 3125 3137 2773 2632 2873 2892 2688 2630 2564 2812 2913 2972 2651 2646 2579 2384 2100 1878 1800 1690 1428 1674 1777 1776 1994 1855 1810 1810 1732 1179 710 810 1369 1424 1923 1055 715 468 700 543
1450 1973 1973 2031 2526 2712 2657 2784 2857 2797 2718 2782 2868 2971 2792 2775 2542 2400 2261 2220 1922 1731 1587 1525 1590 1934 1757 2057 1949 2006 1653 1600 1278 855 554 1439 1965 1852 1066 1233 707 1003 898
1957 1971 2275 2324 2299 2319 2480 3003 2820 2827 2572 2519 2451 2439 2525 2349 2245 2502 2130 2308 2028 1827 1750 1635 1630 2080 1839 1817 2277 1832 1694 1792 792 913 839 1254 1936 1718 1410 1264 1125 498 891
1960 1761 2518 2488 2784 2785 2513 2546 2936 2789 2790 2790 2671 2601 2360 1830 2273 2561 2052 1891 1996 1869 1755 1633 1706 1722 2071 1775 1813 1840 1582 691 499 668 725 1628 2014 1559 1440 1397 1429 799 969
1547 1459 2103 2297 2668 2567 3019 3269 2298 2283 2344 2445 2399 2502 2482 2595 2415 1690 2308 2233 1946 1958 1848 1677 1560 1523 1163 921 1331 1626 884 469 890 774 1100 1479 1875 1509 1556 1659 1579 1757 1112
1922 1772 1949 2351 2694 2753 2765 3225 2903 3423 3320 2104 2240 2636 2276 2288 2331 1853 2640 1996 1528 1632 1193 1526 1336 1079 1042 542 1243 1151 846 644 1148 1613 1127 1850 1898 1455 1595 1637 1771 1295 1374
1933 2068 2083 2941 2299 2503 2541 2263 3238 2419 2466 2738 3196 2698 2854 2421 2383 2015 1555 1590 1920 2901 1687 1434 1360 1250 1615 1482 1750 1181 1198 1131 745 698 1288 1947 1861 1956 1510 1825 1496 1285 1093
1492 1623 2238 2949 2641 2736 2749 2437 2564 2939 1556 2476 2074 1903 1151 1338 1877 634 158 158 814 1601 1644 1591 1175 1687 1773 1696 1597 1509 1318 1144 1077 823 887 2174 2003 1746 1899 1878 1728 1317 970
1493 1651 2009 2275 2652 2498 2938 2678 3549 2308 1782 1633 1891 1671 1847 1361 1402 671 345 151 358 971 1512 669 1556 2042 1177 1426 1699 1400 1609 1862 1450 1327 813 1117 2194 1795 1771 1757 1857 1434 657
1711 1881 2268 2595 2460 2733 2433 2282 2190 1542 1262 2062 1588 2575 1916 2018 1622 1297 866 751 314 303 178 189 713 1717 1669 1915 1296 1755 1327 1829 1689 1444 1532 1362 1420 1886 1928 1807 2147 1895 1493
1994 2142 2296 1863 2291 2493 2918 2189 1635 1649 1564 2108 2099 2625 2044 2356 2239 2026 1590 1191 812 101 0 32 1207 920 1724 1675 1956 1709 1652 1461 1434 1736 2192 1412 812 840 1714 1701 1700 1768 281
2370 2644 2606 2110 1948 2924 2346 1941 1862 1702 1793 1362 965 1295 2126 1941 1648 1883 1289 1499 1495 716 689 1759 1403 1489 1528 1231 1297 1719 1691 1831 1266 1264 1548 1558 1492 1444 1195 1462 1133 1123 404
2779 3000 2437 1591 1943 2861 2620 2341 1628 1254 2012 1657 1766 2000 2193 2136 1861 2532 2432 1604 3073 2000 1325 1484 1669 1535 983 814 475 881 1779 1346 1387 1310 1521 2125 2251 1613 1362 2227 1650 569 798
3024 2977 2491 2224 1827 1482 1237 1733 1914 1271 2238 2017 2223 1688 1774 1912 1784 2364 2600 2464 2518 2281 2146 2581 2020 2213 1033 963 1571 931 622 848 1618 1554 1399 1249 1812 1700 1187 2382 1589 1461 823
2804 2396 2171 1862 905 784 1657 1606 2080 1745 1909 2165 2540 1920 2026 1680 1552 1817 2302 2099 2331 2233 2354 2381 2293 2191 1949 2213 1049 612 388 135 658 1333 1404 2353 1731 2391 1667 2008 1790 1721 1068
2518 2034 2055 1169 855 339 911 1720 2815 2304 2314 2576 1947 981 915 988 922 1262 1298 1966 1918 2487 2407 1777 1970 1571 1740 2103 1681 652 235 86 107 1916 2087 1462 1919 2804 2047 2164 1396 1894 1776
2228 2162 1771 1797 1082 571 478 474 1777 2340 1759 1137 746 813 1063 888 661 872 1115 874 1736 2260 1875 1929 2178 1583 1807 1722 1937 1109 1625 994 660 573 2104 2200 2572 2441 2354 1238 755 1064 2123
1387 1411 1595 1455 1048 1263 1455 2043 2252 2448 610 582 631 819 1636 1751 917 969 738 771 1061 1872 1926 1619 1884 2129 1974 1883 1595 1998 1536 465 786 750 1043 867 1477 1287 2037 1549 1208 1537 1916
1606 1230 1304 1551 1460 1487 1495 1862 1995 1038 842 766 909 716 416 370 800 972 900 1012 1526 1271 1303 1996 1859 1616 1885 844 1395 1718 1761 1079 545 814 1435 997 322 725 988 699 1434 1556 1672